Probability
3 3 3 3 3 6 6 0 3 3 3 0 0 0 0 0 3 3 0 3 0 3 3 3 3 3 0 0 0 0 0 0 0 0 3 0 0 0 0 0 0 0 0
3 3 0 6 6 6 0 3 3 3 3 0 0 0 0 0 0 0 0 0 3 3 0 0 3 0 3 0 0 0 0 0 0 0 0 0 0 6 6 3 0 0 0
0 0 0 6 3 3 3 3 3 3 0 0 0 3 3 0 0 0 0 0 0 0 0 0 0 0 0 0 0 0 0 0 0 0 0 0 0 3 0 3 0 0 0
0 0 0 6 6 6 3 0 0 0 0 0 3 3 0 0 0 3 3 0 0 0 0 0 0 0 0 0 0 0 0 0 0 0 0 0 0 0 0 0 0 0 0
0 0 0 0 3 0 3 0 0 0 0 0 0 0 0 0 0 0 0 0 0 0 0 0 0 0 0 0 0 0 0 0 0 0 0 0 0 0 0 3 0 0 0
0 0 0 0 0 3 6 3 0 0 0 3 0 3 0 0 0 0 0 0 0 0 0 0 0 0 0 0 0 0 0 0 0 0 0 0 0 0 0 0 0 0 0
0 0 0 3 3 3 0 0 3 3 6 6 3 3 3 0 0 0 0 0 0 0 0 0 0 0 0 0 0 0 0 0 0 0 0 0 0 0 0 0 0 0 0
3 3 3 3 3 6 6 6 6 6 6 3 6 3 3 0 0 0 0 0 0 0 0 0 0 0 0 0 0 0 0 0 0 0 0 0 0 0 0 0 0 0 0
0 3 3 3 3 6 6 10 10 16 10 10 3 3 3 3 0 0 0 0 0 0 0 0 0 0 0 0 0 0 0 0 0 0 0 0 0 0 0 0 0 0 0
3 3 3 6 10 10 10 16 16 23 6 3 0 3 3 3 0 0 0 0 0 0 0 0 0 0 0 0 0 0 0 0 0 0 0 0 0 0 0 0 0 0 0
3 6 6 10 16 13 13 19 23 6 6 6 3 0 0 0 0 0 0 0 0 0 0 0 0 0 0 0 0 0 0 0 0 0 0 0 0 0 0 0 0 0 0
6 6 10 23 10 0 26 42 35 13 0 0 0 0 0 0 0 0 0 0 0 0 0 0 0 0 0 0 0 0 0 0 0 0 0 0 0 0 3 0 0 0 0
23 26 29 23 23 26 23 23 19 6 0 0 0 0 0 0 0 0 0 0 0 0 0 0 0 0 0 0 0 0 0 0 0 0 0 0 0 0 0 0 0 0 0
39 35 35 32 23 26 26 3 3 6 0 0 0 0 0 0 0 0 0 0 0 0 0 0 0 0 0 0 0 0 0 0 0 0 0 0 0 0 0 0 0 0 0
39 32 29 10 3 29 19 16 3 3 0 0 0 0 0 0 0 0 0 0 0 0 0 0 0 3 0 0 0 0 0 0 0 0 3 0 0 0 0 0 0 0 0
29 19 3 3 3 3 3 3 0 0 0 0 0 0 0 0 0 0 0 0 0 0 0 0 0 0 0 0 0 0 0 0 0 0 0 0 0 0 0 0 0 0 0
29 16 6 0 0 0 3 3 0 0 0 0 0 0 0 0 0 0 0 0 0 0 0 0 0 0 3 0 0 0 0 0 0 0 0 0 0 0 0 0 0 0 0
19 10 0 3 0 0 0 0 0 0 0 0 0 0 0 0 0 0 0 0 0 0 0 0 0 0 0 3 0 0 0 0 0 3 3 0 0 0 0 0 0 0 0
10 3 3 3 0 0 0 0 0 0 0 3 3 0 0 0 0 0 0 0 0 0 0 0 0 0 0 0 0 0 0 0 0 0 0 0 0 0 0 0 0 0 0
10 0 0 0 0 0 0 0 0 0 0 0 0 0 0 0 0 0 0 0 0 0 0 0 0 0 0 0 0 0 0 0 0 0 0 0 0 0 0 0 0 0 0
0 0 0 0 0 0 0 3 0 0 0 0 0 0 0 0 0 0 0 0 0 0 0 0 0 0 0 0 0 0 0 0 0 0 0 0 0 0 0 0 0 0 0
0 0 0 0 0 0 0 0 0 0 0 0 0 0 0 0 0 0 0 0 0 0 0 0 0 0 0 0 0 0 0 0 0 0 0 0 0 0 0 0 0 0 0
0 0 0 0 0 0 0 0 0 0 3 0 0 0 0 0 0 0 0 0 0 0 0 0 0 0 0 0 0 0 0 0 0 0 0 0 0 0 0 0 0 0 0
0 0 0 0 0 0 0 0 0 0 0 0 0 0 0 0 0 0 0 0 0 0 0 0 0 0 0 0 0 0 0 0 0 0 0 0 0 0 0 0 0 0 0
0 0 0 0 0 0 0 0 0 0 0 0 0 0 0 0 0 0 0 0 0 0 0 0 0 0 0 0 0 0 0 0 0 0 0 0 0 0 0 0 0 0 0
0 0 0 0 0 0 0 0 0 0 0 0 0 0 0 0 0 0 0 0 0 0 0 0 0 0 0 0 0 0 0 0 0 0 0 0 0 0 0 0 0 0 0
Height
5832 5829 5826 5823 5820 5817 5812 5808 5804 5799 5794 5789 5784 5779 5774 5769 5764 5760 5756 5753 5750 5747 5744 5743 5741 5740 5740 5740 5741 5742 5743 5744 5747 5749 5751 5754 5757 5761 5765 5769 5774 5778 5783
5829 5826 5823 5819 5816 5812 5807 5802 5797 5792 5786 5781 5775 5770 5765 5759 5754 5750 5745 5742 5738 5735 5733 5731 5729 5728 5728 5727 5728 5729 5730 5731 5734 5737 5739 5742 5745 5749 5753 5757 5762 5767 5772
5825 5822 5819 5815 5811 5806 5801 5796 5790 5784 5778 5772 5766 5761 5755 5750 5745 5740 5735 5731 5728 5725 5722 5720 5718 5716 5716 5715 5715 5716 5717 5719 5721 5724 5727 5730 5733 5737 5741 5746 5751 5756 5761
5821 5818 5814 5810 5805 5800 5795 5789 5783 5777 5771 5764 5758 5752 5746 5740 5735 5730 5725 5721 5717 5714 5711 5709 5706 5705 5704 5703 5703 5704 5705 5707 5709 5711 5715 5718 5721 5725 5729 5734 5739 5744 5750
5816 5813 5809 5804 5799 5794 5788 5782 5776 5769 5763 5756 5750 5743 5737 5731 5726 5721 5716 5711 5708 5704 5701 5698 5695 5693 5692 5691 5691 5691 5692 5694 5696 5699 5702 5706 5709 5713 5718 5722 5727 5732 5738
5811 5808 5803 5798 5793 5787 5781 5775 5768 5762 5755 5748 5741 5735 5728 5722 5716 5711 5706 5702 5698 5694 5690 5687 5685 5683 5681 5680 5679 5679 5680 5682 5684 5686 5690 5693 5697 5701 5706 5711 5716 5722 5728
5806 5802 5797 5792 5787 5781 5775 5768 5761 5754 5747 5740 5733 5726 5719 5713 5707 5702 5697 5692 5688 5684 5680 5677 5674 5672 5670 5669 5668 5667 5668 5669 5671 5674 5677 5681 5684 5689 5694 5699 5704 5710 5717
5800 5796 5791 5785 5780 5773 5767 5760 5753 5746 5739 5732 5724 5717 5711 5705 5699 5693 5688 5683 5678 5674 5670 5667 5664 5661 5659 5658 5657 5656 5656 5657 5659 5661 5665 5668 5671 5676 5681 5687 5692 5699 5706
5793 5789 5784 5778 5772 5766 5759 5752 5745 5738 5730 5723 5716 5709 5703 5696 5690 5684 5679 5674 5670 5665 5661 5657 5654 5651 5648 5646 5645 5645 5645 5645 5646 5648 5651 5655 5659 5664 5669 5675 5681 5688 5695
5786 5781 5776 5771 5765 5758 5751 5744 5737 5730 5722 5715 5708 5702 5695 5688 5682 5676 5671 5666 5662 5657 5652 5648 5645 5642 5639 5636 5634 5633 5633 5633 5633 5635 5638 5642 5646 5651 5657 5663 5670 5676 5683
5778 5773 5768 5763 5756 5750 5743 5736 5729 5722 5715 5708 5701 5694 5687 5681 5675 5669 5663 5658 5653 5648 5644 5639 5636 5632 5629 5626 5624 5623 5622 5621 5622 5624 5627 5630 5634 5639 5645 5651 5658 5665 5673
5770 5765 5760 5754 5748 5741 5734 5728 5721 5714 5707 5700 5693 5687 5680 5673 5667 5661 5656 5650 5645 5640 5635 5631 5627 5623 5620 5617 5614 5612 5611 5611 5611 5613 5616 5619 5623 5628 5634 5640 5647 5654 5661
5762 5757 5751 5745 5739 5733 5726 5720 5713 5706 5699 5692 5685 5679 5672 5666 5660 5654 5649 5643 5638 5632 5628 5623 5618 5614 5611 5608 5605 5603 5601 5601 5601 5603 5605 5609 5613 5618 5623 5630 5636 5643 5651
5753 5748 5742 5737 5731 5725 5718 5712 5705 5698 5691 5684 5677 5671 5665 5658 5652 5647 5641 5636 5631 5625 5620 5615 5610 5606 5602 5599 5596 5594 5592 5592 5592 5593 5596 5599 5603 5608 5614 5620 5627 5634 5642
5744 5738 5733 5727 5721 5716 5709 5703 5696 5689 5682 5676 5669 5663 5657 5652 5646 5640 5634 5629 5623 5618 5613 5608 5603 5599 5595 5591 5588 5586 5584 5584 5584 5585 5587 5590 5595 5600 5606 5612 5619 5626 5633
5734 5729 5723 5717 5711 5705 5699 5693 5687 5681 5674 5668 5661 5656 5650 5644 5639 5633 5628 5623 5617 5612 5606 5601 5597 5592 5588 5585 5582 5579 5578 5577 5577 5578 5580 5583 5587 5593 5598 5605 5611 5618 5625
5723 5718 5712 5707 5701 5695 5689 5684 5678 5672 5666 5660 5654 5648 5643 5637 5633 5627 5622 5617 5611 5606 5600 5595 5591 5586 5583 5579 5576 5574 5572 5571 5571 5572 5574 5577 5581 5586 5591 5597 5604 5611 5618
5712 5707 5701 5696 5691 5685 5680 5674 5668 5663 5657 5652 5646 5641 5636 5631 5626 5621 5616 5611 5606 5600 5595 5590 5585 5581 5578 5574 5572 5570 5568 5567 5567 5567 5569 5572 5575 5580 5585 5591 5597 5604 5611
5700 5695 5690 5685 5679 5674 5669 5664 5658 5653 5648 5643 5638 5633 5629 5624 5620 5615 5610 5605 5600 5595 5590 5585 5581 5577 5573 5570 5568 5566 5564 5563 5563 5563 5565 5567 5570 5574 5579 5585 5591 5597 5605
5688 5683 5678 5673 5668 5663 5658 5653 5648 5643 5638 5634 5630 5625 5621 5617 5613 5609 5604 5599 5595 5590 5585 5581 5576 5572 5569 5566 5564 5562 5561 5560 5559 5560 5561 5564 5566 5570 5574 5579 5585 5592 5599
5675 5670 5665 5660 5655 5651 5646 5642 5638 5633 5629 5625 5622 5618 5614 5610 5606 5603 5599 5594 5590 5585 5581 5577 5573 5569 5566 5563 5561 5559 5558 5557 5557 5557 5559 5560 5563 5566 5570 5576 5581 5588 5595
5660 5656 5651 5647 5642 5638 5634 5630 5627 5623 5620 5616 5614 5611 5608 5604 5600 5597 5593 5589 5584 5580 5577 5573 5569 5566 5563 5560 5558 5557 5556 5555 5555 5555 5556 5558 5560 5563 5567 5572 5578 5584 5591
5645 5641 5637 5633 5629 5626 5622 5619 5616 5613 5611 5608 5605 5603 5600 5597 5594 5591 5588 5584 5580 5576 5572 5569 5565 5562 5560 5558 5556 5554 5554 5553 5553 5554 5555 5556 5559 5562 5566 5570 5575 5581 5587
5630 5626 5622 5619 5616 5613 5610 5608 5605 5603 5602 5600 5597 5595 5593 5591 5588 5585 5582 5579 5575 5572 5568 5565 5562 5560 5557 5555 5554 5553 5552 5551 5552 5553 5554 5556 5558 5561 5565 5569 5574 5579 5584
5614 5611 5608 5605 5602 5600 5598 5596 5595 5593 5592 5591 5589 5588 5586 5585 5583 5580 5577 5574 5571 5568 5565 5562 5559 5557 5555 5553 5552 5551 5551 5551 5551 5552 5553 5555 5558 5561 5564 5568 5572 5577 5582
5598 5595 5593 5590 5588 5587 5586 5585 5584 5583 5583 5583 5582 5581 5580 5579 5577 5575 5572 5569 5567 5564 5561 5559 5557 5554 5553 5551 5551 5550 5550 5550 5551 5552 5553 5555 5557 5560 5563 5567 5571 5575 5580
Wind_Speed
21 22 24 25 27 28 30 31 32 33 34 35 36 37 37 38 38 38 38 39 39 39 39 39 40 40 40 41 41 41 41 41 41 40 42 42 42 42 42 42 41 41 41
21 23 24 26 28 30 32 33 34 35 36 37 37 38 38 39 38 38 38 37 37 37 37 38 38 39 40 41 41 41 41 41 41 41 41 42 41 41 42 42 42 42 41
23 24 26 28 30 32 34 35 37 38 38 38 39 39 39 39 38 38 37 36 35 35 35 36 36 37 38 39 40 41 41 41 41 41 41 41 42 42 41 42 42 43 42
24 25 27 30 32 34 36 37 38 39 39 40 40 40 40 39 38 37 36 35 34 34 34 35 35 36 36 37 38 39 40 40 40 41 41 41 41 42 42 41 42 43 43
25 27 29 32 34 36 37 38 39 40 41 41 41 40 40 39 38 36 36 35 34 34 34 34 34 34 34 35 37 38 39 39 40 40 40 41 41 41 42 42 41 42 43
27 28 31 33 36 38 39 40 41 42 42 42 42 41 40 40 38 37 35 35 34 33 33 33 33 33 33 34 35 36 38 38 39 40 40 41 41 41 42 42 41 41 42
28 30 33 35 37 39 40 42 42 43 43 43 42 41 40 39 38 37 36 35 34 33 33 33 33 33 32 33 33 35 36 38 39 40 40 40 41 41 42 42 42 42 42
30 32 34 36 38 40 42 43 44 44 44 43 42 41 39 38 37 37 36 34 33 32 32 32 32 32 32 33 33 34 35 37 39 40 40 41 42 42 42 42 43 42 42
32 35 36 38 40 42 44 44 45 44 44 43 42 40 39 38 38 37 35 33 31 31 32 32 31 31 32 33 33 34 35 37 38 39 39 40 41 42 42 42 43 43 42
34 36 37 39 41 44 45 45 45 45 45 43 42 40 39 39 38 36 34 32 31 31 32 31 31 31 31 31 31 32 32 34 35 36 37 38 40 41 42 42 42 43 43
37 38 39 42 44 45 45 45 46 45 45 44 42 41 39 38 37 36 34 32 31 31 31 31 31 30 30 29 29 30 30 31 32 34 35 36 38 39 41 42 42 43 43
39 40 42 43 45 46 47 47 46 46 45 44 42 40 39 37 36 35 33 32 31 31 31 30 30 30 29 28 28 28 29 29 30 31 33 34 35 37 38 40 42 43 44
42 42 44 45 46 47 47 47 46 46 45 44 42 40 39 37 36 34 32 32 32 31 30 30 29 28 27 27 27 27 27 27 28 29 30 31 32 34 37 38 40 42 44
44 45 46 46 47 47 48 48 47 46 45 44 41 40 38 36 35 34 32 32 31 30 29 29 28 27 27 26 26 25 25 24 26 27 28 29 31 33 34 37 38 40 43
45 46 47 48 48 48 48 48 47 46 45 43 41 39 38 36 34 33 32 32 31 30 29 28 27 26 25 24 23 22 22 22 22 24 26 27 29 31 32 34 37 38 41
47 49 49 49 49 49 49 49 47 46 44 42 40 39 37 35 33 32 31 31 30 29 29 27 26 25 23 22 20 20 19 19 20 21 22 25 27 30 32 33 35 37 38
48 49 49 49 49 49 49 48 47 45 43 41 39 37 35 33 32 31 30 29 29 29 28 26 24 23 22 20 18 17 16 17 17 18 20 23 26 28 30 32 34 35 37
50 50 51 50 49 49 49 48 47 45 42 40 37 35 33 32 31 30 29 29 28 28 27 25 23 21 19 18 17 15 15 15 15 16 18 20 23 26 28 30 33 34 36
52 52 52 51 50 50 49 48 46 43 41 38 36 34 32 30 30 29 28 28 27 27 25 24 22 20 19 17 16 15 14 13 13 15 16 18 21 23 26 29 32 34 35
53 52 52 51 51 50 49 47 45 42 40 37 34 32 30 29 28 28 27 27 26 25 24 23 21 19 17 16 14 13 12 11 12 13 14 16 19 21 24 28 30 32 34
53 53 53 52 51 49 47 45 43 41 38 35 32 30 29 28 27 26 26 25 25 23 22 22 20 18 16 14 13 12 11 11 10 11 13 15 16 19 23 26 28 31 32
54 53 52 51 49 47 45 43 41 38 35 33 30 28 27 26 26 25 25 25 24 22 21 20 18 16 14 13 12 11 11 10 10 10 11 12 14 17 21 25 27 30 31
53 52 50 49 47 45 44 41 38 36 33 31 28 26 25 25 24 24 24 24 22 21 19 18 17 15 13 12 11 10 9 9 9 9 9 11 13 16 20 22 25 27 29
52 51 49 48 45 43 41 38 35 33 30 28 26 25 24 24 23 23 22 22 21 19 18 17 15 13 12 10 9 8 7 7 7 8 9 10 12 15 18 21 23 25 26
50 49 47 45 43 41 38 34 31 30 28 26 24 24 23 22 21 21 21 20 18 17 16 15 14 12 10 9 8 7 6 5 6 8 10 11 13 15 17 20 22 24 24
49 47 45 42 40 38 34 32 30 28 26 25 23 22 21 20 19 18 18 18 16 16 15 14 13 11 10 9 8 7 6 5 6 8 10 11 13 15 17 19 21 23 24
Wind_Direction
331 330 330 330 329 328 327 325 323 320 318 317 315 313 311 310 307 303 300 296 293 289 286 283 281 277 274 271 269 267 266 264 261 259 258 256 254 252 249 247 245 243 241
329 329 329 329 328 328 327 326 325 323 321 319 318 316 314 312 309 306 303 299 295 292 288 285 281 278 275 271 269 267 265 263 261 258 256 255 254 252 249 247 244 242 241
327 328 328 328 328 329 328 328 327 325 324 322 320 318 316 314 312 309 306 302 298 294 291 287 284 280 276 272 269 267 264 262 260 257 255 254 253 251 249 246 244 242 241
325 326 327 328 328 328 328 328 328 327 326 324 322 320 318 316 314 311 308 304 300 296 293 290 286 282 277 273 269 266 264 262 259 257 254 253 252 249 248 246 243 241 239
322 324 326 328 329 329 329 329 329 328 327 325 324 322 319 317 315 312 309 306 302 299 295 291 287 283 280 274 270 266 263 261 259 256 254 252 250 248 246 245 242 240 237
320 322 325 327 329 330 330 330 329 328 328 326 325 324 321 319 316 313 310 307 304 301 297 293 289 285 281 276 271 267 263 260 258 256 254 252 249 247 245 243 241 239 236
319 322 325 327 329 330 330 330 329 329 328 327 326 324 323 321 318 315 312 310 306 302 298 295 291 286 281 277 273 269 264 261 258 256 253 251 249 246 244 241 239 236 234
318 321 323 324 326 328 330 330 330 329 329 328 326 325 323 321 319 316 314 311 307 303 301 297 293 288 283 279 275 271 266 263 259 256 252 249 247 244 242 240 237 235 233
318 320 321 323 325 328 330 330 330 330 330 328 327 326 324 322 320 318 315 312 308 305 303 300 295 291 286 282 278 273 268 264 261 257 252 248 245 243 241 238 236 234 231
316 318 321 323 325 327 329 330 330 330 330 329 327 326 324 323 321 319 316 313 310 307 305 301 297 294 290 285 281 276 270 265 261 256 252 247 244 241 239 236 234 232 229
316 318 320 322 324 326 327 328 329 329 329 328 327 325 324 322 320 319 317 314 312 310 307 303 300 296 292 287 283 277 271 267 261 256 252 247 243 240 237 234 232 229 228
316 317 318 320 323 325 326 327 328 328 328 327 325 324 323 322 321 320 318 316 315 313 310 306 302 298 294 289 284 278 273 268 262 256 251 247 242 238 234 231 229 227 226
315 316 317 319 321 322 324 325 326 326 326 326 325 324 323 322 322 320 318 318 317 315 312 309 306 301 296 292 286 281 275 269 262 255 249 245 240 234 230 228 226 225 224
314 315 316 318 320 321 322 323 324 325 325 325 324 324 323 322 321 321 319 319 318 317 314 312 308 304 300 295 290 284 278 270 262 255 248 242 236 232 228 225 223 222 222
313 315 316 316 317 319 320 321 322 323 323 323 322 322 322 322 321 321 320 320 320 318 316 314 311 308 304 299 293 286 279 272 264 254 246 239 234 228 225 223 221 220 220
311 313 314 315 316 317 318 320 321 321 321 320 319 320 321 320 320 320 320 320 321 320 319 316 313 311 308 303 298 290 283 273 264 255 245 238 231 226 224 222 221 220 219
309 311 312 313 314 315 316 317 318 318 318 317 317 318 318 318 318 319 320 320 321 321 321 319 316 312 309 305 301 294 286 275 263 252 243 236 230 226 223 221 220 219 217
307 309 310 310 311 312 313 314 315 316 315 315 315 316 315 315 317 318 319 320 320 321 321 320 318 315 311 306 302 297 289 277 264 253 243 234 229 226 222 219 218 217 216
305 306 307 308 308 309 310 311 312 312 312 312 312 312 313 313 315 317 318 319 320 321 321 320 319 316 313 308 302 298 292 278 264 251 242 235 229 224 219 216 216 215 213
303 304 304 305 305 306 307 308 309 309 310 310 310 310 311 312 314 315 317 318 319 319 320 321 320 316 312 309 304 299 294 282 264 252 242 234 227 221 215 213 212 210 209
300 301 301 302 303 303 304 304 305 306 306 306 306 308 309 310 311 313 316 317 318 318 319 321 320 317 313 309 303 296 293 283 266 253 241 231 223 216 210 207 205 206 206
299 299 300 300 301 301 301 301 302 302 302 302 302 302 304 307 309 311 314 318 318 316 316 319 320 316 314 310 305 295 290 280 262 250 236 225 219 211 206 204 203 203 204
297 297 298 298 298 298 298 298 298 298 298 298 298 298 301 304 306 309 313 316 317 316 316 316 316 313 309 310 305 295 286 274 249 237 227 217 211 204 201 200 200 200 203
296 296 296 296 295 295 295 294 293 293 294 293 292 292 296 301 304 307 310 314 316 316 317 317 315 312 306 304 303 297 283 264 240 224 215 211 205 200 199 201 202 201 201
295 295 294 294 293 292 291 289 286 287 287 285 286 288 292 296 300 304 308 311 314 314 315 317 315 310 305 299 293 289 278 253 231 216 209 206 203 201 200 202 202 200 200
294 293 292 291 290 289 286 282 280 281 281 281 282 282 284 290 297 301 306 311 311 312 315 316 316 312 302 291 281 271 259 238 221 213 208 206 203 203 202 204 203 202 202